Regional Weather Roundup
Issued by NWS

Home | Current Version | Previous Version | Text Only | Print | Product List | Glossary Off
Versions: 1 2 3 4 5 6 7 8 9 10 11 12 13 14 15 16 17 18 19 20 21 22 23 24 25 26 27 28 29 30 31 32 33 34 35 36 37 38 39 40 41 42 43 44 45 46 47 48 49 50

000
ASUS43 KMKX 211200
RWRWI

WISCONSIN REGIONAL WEATHER ROUNDUP
NATIONAL WEATHER SERVICE MILWAUKEE/SULLIVAN WI
700 AM CDT MON MAY 21 2018

NOTE: "FAIR" INDICATES FEW OR NO CLOUDS BELOW 12,000 FEET WITH NO
SIGNIFICANT WEATHER AND/OR OBSTRUCTIONS TO VISIBILITY.

WIZ001-002-006>008-014>016-023>028-211300-
NORTHWEST WISCONSIN

CITY           SKY/WX    TMP DP  RH WIND       PRES   REMARKS
SUPERIOR ARPT  FAIR      37  37  99 CALM      30.18S
6HR MIN TEMP:  32; 6HR MAX TEMP:  37;

ASHLAND        FAIR      47  41  80 CALM      30.19S
6HR MIN TEMP:  33; 6HR MAX TEMP:  47;

HAYWARD        FAIR      45  41  86 N6        30.18F
6HR MIN TEMP:  37; 6HR MAX TEMP:  45;

SIREN            N/A     41  38  87 CALM      30.15S
CUMBERLAND     CLOUDY    46  41  81 E6        30.15F
RICE LAKE      FAIR      49  43  80 N3        30.17F
6HR MIN TEMP:  42; 6HR MAX TEMP:  49;

CHETEK         FAIR      48  41  76 NE5       30.16F
LADYSMITH      FAIR      47  36  66 E5        30.18F
6HR MIN TEMP:  41; 6HR MAX TEMP:  47;

EAU CLAIRE     NOT AVBL
MENOMONIE      PTSUNNY   54  42  66 NE6       30.13S
6HR MIN TEMP:  52; 6HR MAX TEMP:  55;

NEW RICHMOND   CLOUDY    55  43  65 E7        30.12F
OSCEOLA        CLOUDY    54  46  74 E5        30.16S
6HR MIN TEMP:  45; 6HR MAX TEMP:  54;

$$

WIZ003>005-009-010-017-018-211300-
NORTH CENTRAL WISCONSIN

CITY           SKY/WX    TMP DP  RH WIND       PRES   REMARKS
MANITOWISH WTR FAIR      48  41  78 CALM      30.20F
6HR MIN TEMP:  33; 6HR MAX TEMP:  48;

ARBOR VITAE    FAIR      42  39  91 CALM      30.20F
WOODRUFF       FAIR      42  39  91 CALM      30.20F
RHINELANDER    FAIR      45  40  82 CALM      30.20F
6HR MIN TEMP:  35; 6HR MAX TEMP:  45;

EAGLE RIVER    FAIR      42  40  94 CALM      30.20F
6HR MIN TEMP:  32; 6HR MAX TEMP:  42;

LAND O LAKES   FAIR      39  39  98 CALM      30.22F
6HR MIN TEMP:  32; 6HR MAX TEMP:  39;

PHILLIPS       FAIR      42  39  89 CALM      30.18F
6HR MIN TEMP:  34; 6HR MAX TEMP:  42;

TOMAHAWK       FAIR      34  33  94 CALM      30.19F
6HR MIN TEMP:  31; 6HR MAX TEMP:  39;

MEDFORD        FAIR      42  34  73 E7        30.16F
MERRILL        FAIR      38  35  90 CALM      30.19F
6HR MIN TEMP:  33; 6HR MAX TEMP:  40;

$$

WIZ029-030-035-036-043>047-211300-
CENTRAL WISCONSIN

CITY           SKY/WX    TMP DP  RH WIND       PRES   REMARKS
WAUSAU         FAIR      47  34  60 CALM      30.16F
6HR MIN TEMP:  39; 6HR MAX TEMP:  48;

MOSINEE        PTSUNNY   43  34  70 NE7       30.18S
MARSHFIELD     FAIR      47  36  65 E8        30.15S
6HR MIN TEMP:  43; 6HR MAX TEMP:  48;

STEVENS POINT  NOT AVBL
WAUPACA        FAIR      47  38  69 CALM      30.18S
6HR MIN TEMP:  39; 6HR MAX TEMP:  47;

WAUTOMA        FAIR      46  36  68 NE6       30.17S
6HR MIN TEMP:  41; 6HR MAX TEMP:  46;

WISC RAPIDS    FAIR      48  31  51 NE6       30.16S
6HR MIN TEMP:  42; 6HR MAX TEMP:  50;

CAMP DOUGLAS   PTSUNNY   48  43  81 E3        30.14S
$$

WIZ011>013-019>022-031-037>040-048>050-211300-
NORTHEAST WISCONSIN

CITY           SKY/WX    TMP DP  RH WIND       PRES   REMARKS
ANTIGO         FAIR      40  33  74 NE5       30.19F
6HR MIN TEMP:  33; 6HR MAX TEMP:  40;

SHAWANO        FAIR      50  40  69 E7        30.19S
6HR MIN TEMP:  38; 6HR MAX TEMP:  50;

OCONTO         FAIR      38  37  95 CALM      30.20F
STURGEON BAY   FAIR      47  33  58 E8        30.21F
6HR MIN TEMP:  38; 6HR MAX TEMP:  47;

GREEN BAY        N/A     48  42  80 NE6       30.18F
6HR MIN TEMP:  38; 6HR MAX TEMP:  48;

MANITOWOC      FAIR      43  39  86 CALM      30.20S
6HR MIN TEMP:  39; 6HR MAX TEMP:  43;

APPLETON       PTSUNNY   46  32  57 NE8       30.16S
CLINTONVILLE   FAIR      45  38  78 NE5       30.19S
6HR MIN TEMP:  38; 6HR MAX TEMP:  45;

OSHKOSH        FAIR      53  45  74 E8        30.16S
6HR MIN TEMP:  45; 6HR MAX TEMP:  53;

$$

WIZ032>034-041-042-053>061-211300-
SOUTHWEST WISCONSIN

CITY           SKY/WX    TMP DP  RH WIND       PRES   REMARKS
LA CROSSE      PTSUNNY   57  46  66 E3        30.11F
6HR MIN TEMP:  57; 6HR MAX TEMP:  58;

SPARTA         CLOUDY    51  44  76 NE6       30.13F
VIROQUA        CLOUDY    52  44  76 E7        30.12S
6HR MIN TEMP:  51; 6HR MAX TEMP:  53;

BOSCOBEL       CLOUDY    54  46  74 VRB3      30.11F
6HR MIN TEMP:  53; 6HR MAX TEMP:  56; 6HR PCP:  0.01;

PRAIRIE DU CHI RAIN      51  47  86 CALM      30.11S
PLATTEVILLE    CLOUDY    51  51 100 E10       30.11R
$$

WIZ056-057-062-063-064-067-068-211300-
SOUTH CENTRAL WISCONSIN

CITY           SKY/WX    TMP DP  RH WIND       PRES   REMARKS
REEDSBURG      CLOUDY    50  39  66 E3        30.14S
6HR MIN TEMP:  49; 6HR MAX TEMP:  52;

BARABOO/DELLS  CLOUDY    49  39  67 NE3       30.14R
LONE ROCK      NOT AVBL
MINERAL POINT  LGT RAIN  52  50  93 E8        30.11S
MADISON        LGT RAIN  50  43  77 E6        30.14R
6HR MIN TEMP:  50; 6HR MAX TEMP:  51; 6HR PCP: TRACE;

MIDDLETON      CLOUDY    52  46  78 E5        30.14S
WATERTOWN      CLOUDY    50  47  91 E7        30.16R
6HR MIN TEMP:  46; 6HR MAX TEMP:  50;

MONROE         DRIZZLE   46  46 100 NE8       30.11F
JANESVILLE     RAIN      52  52 100 E8        30.14R
$$

WIZ051-052-058>065-066-070>072-211300-
SOUTHEAST WISCONSIN

CITY           SKY/WX    TMP DP  RH WIND       PRES   REMARKS
MILWAUKEE      LGT RAIN  48  45  89 NE7       30.16F
6HR MIN TEMP:  45; 6HR MAX TEMP:  48; 6HR PCP: TRACE;

WAUKESHA       CLOUDY    46  41  81 CALM      30.18R
MILWAUKEE/TIMM CLOUDY    46  41  81 NE3       30.18S
RACINE         CLOUDY    48  46  93 NE7       30.17F
6HR MIN TEMP:  44; 6HR MAX TEMP:  48; 6HR PCP: TRACE;

BURLINGTON     RAIN      48  45  91 CALM      30.15R
KENOSHA        LGT RAIN  50  47  89 NE5       30.16R
6HR MIN TEMP:  44; 6HR MAX TEMP:  50; 6HR PCP: TRACE;

FOND DU LAC    FAIR      50  42  74 CALM      30.16S
6HR MIN TEMP:  43; 6HR MAX TEMP:  50;

SHEBOYGAN      FAIR      45  42  89 NE5       30.18S
6HR MIN TEMP:  39; 6HR MAX TEMP:  45;

WEST BEND      CLOUDY    46  43  87 E5        30.17S
JUNEAU         PTSUNNY   49  42  76 CALM      30.16F
$$

LSZ147-162-211300-
LAKE SUPERIOR

STATION/POSITION TIME  TEMP    WIND        PRES    WAVE
                       AIR SEA DIR/SP/G            HT/PER
                 (UTC) (F)     (DEG/KT/KT) (MB)    (FT/S)
W MID LAKE BUOY  1050   41 34  220/  4/  6 1022.7R   0
DEVILS ISLAND    1100   45     360/  1/  2 1022.4R
SAXON HARBOR     1140   47      CALM  /  2 1021.3S
$$

LMZ867-665-643>646-211300-
LAKE MICHIGAN

STATION/POSITION TIME  TEMP    WIND        PRES    WAVE
                       AIR SEA DIR/SP/G            HT/PER
                 (UTC) (F)     (DEG/KT/KT) (MB)    (FT/S)
NORTHPORT PIER   1140   45                 1023.4F
KEWAUNEE LAKESHO 1130   46      40/  6/  8 1022.1S
SHEBOYGAN LAKESH 1100   44      10/  8/  9 1022.6S
PORT WASHINGTON  1130   48      40/  7/  9 1022.7F
MILWAUKEE LAKESH 1130   45      40/  8/  9   N/A
KENOSHA   LAKESH 1100   46                 1021.0
$$

TC  - TEMPERATURE IN CELSIUS
VSB - VISIBILITY IN STATUTE MILES
WCI - WIND CHILL INDEX
HX  - HEAT INDEX





USA.gov is the U.S. government's official web portal to all federal, state and local government web resources and services.